FLOCK 2K-35 (42877 NORAD) Tracking and Keplerian Element Data

This shows tracking and keplerian element data for the satellite.

Feedback or suggestion? Click here.




ElementValue
Catalog42877
NameFLOCK 2K-35
Epoch Orbit23607
Epoch Day269.81214753
Epoch Year2021
RAAN117.797
Inclination96.8408
Eccentricity0.001043
Argument of Perigee54.9927
Mean Anonmoly305.2302
Mean Motion15.47687847
Decay Rate0.00010575
L11 42877U 17042BE 21269.81214753 .00010575 00000-0 20574-3 0 9992
L22 42877 96.8408 117.7970 0010430 54.9927 305.2302 15.47687847236071

Live tracking and technical data element details for FLOCK 2K-35 (NORAD 42877). FLOCK 2K-35 can be tracked NOW for your location showing map with azimuth and elevation plus other details from your city location.

Track the satellite on the map from your city or location and see movement details for azimuth, elevation, latitude, longitude, range, height, and movement on the map or in text.







IsCatalogInMostPopularTable: catalog: 42877, numindb: 589
Update: records affected: 1



GetName: 42877 FLOCK 2K-35

Hit Count: updated at: Tue, 28 Sep 2021 16:02:42 GMT